Torna al catalogo

METEOR 2-8 DEB

AttivoPO
NORAD 36860·DEBRIS·🇷🇺 Russia

Lanciato Mar 25, 1982 da Plesetsk Cosmodrome

Loading…

Prossimi Passaggi (prossime 24 ore)

TLE

AggiornatoSource: Space-Track

Epoca: Sep 12, 2026, 12:22 UTC

1 36860U 82025AX  26255.51569087  .00001893  00000-0  87193-3 0  9993
2 36860  82.5206 178.0237 0027268 131.8261 228.5255 14.20458784117767

Traccia METEOR 2-8 DEB in tempo reale con AllMySat

Download on the App Store